GFSGL_700_temp_093.txt.gz
Temp
13 13 12 12 12 12 12 12 12 12 11 10 10 9 10 9 10 10 10 10 9 9 9 9 8 8 8 8 7 7 7 7 7 7 7 7 8 8 8 8 8 7 7
12 12 12 12 11 11 12 11 12 12 11 11 10 10 10 10 9 9 10 10 10 9 9 9 9 8 8 8 8 7 7 7 7 7 7 7 7 8 8 7 7 7 7
13 12 11 11 10 10 11 11 11 11 11 11 10 10 10 10 9 9 9 9 10 10 9 9 9 9 8 8 8 8 7 7 7 7 7 7 7 7 7 7 7 6 6
10 10 10 11 7 9 10 10 10 11 11 11 10 10 10 10 9 9 9 9 9 9 9 9 9 9 9 8 8 7 7 7 7 7 7 7 7 7 7 7 6 6 6
10 9 9 9 8 7 10 10 10 10 10 11 10 10 10 10 9 9 9 9 9 9 9 9 9 9 9 9 8 8 8 7 7 7 7 7 7 8 7 7 7 6 6
9 10 11 12 9 8 9 10 11 10 10 10 10 10 10 9 9 8 8 8 8 9 8 8 9 9 8 9 9 8 8 7 7 7 7 7 7 7 7 7 7 7 6
12 13 11 9 7 8 9 9 10 10 9 9 9 10 9 9 9 8 8 8 8 8 9 8 8 7 8 8 8 8 8 8 7 7 7 7 7 7 7 7 7 7 6
9 9 8 7 8 8 7 7 8 8 8 8 8 9 9 9 9 8 8 9 8 7 8 8 8 6 7 8 8 8 8 8 8 7 7 7 7 7 7 7 7 7 7
7 7 7 8 7 7 7 7 7 7 7 8 8 8 8 8 8 8 8 8 9 8 8 8 8 8 7 7 7 7 8 8 7 7 8 7 7 7 7 7 7 7 7
6 6 6 7 8 7 7 7 7 7 7 8 8 8 8 8 9 9 9 9 9 9 8 8 8 8 7 7 7 7 7 8 7 7 7 7 7 7 6 6 7 6 6
6 6 6 6 7 6 6 6 7 7 7 7 7 7 9 8 9 9 9 8 8 8 8 8 8 8 7 8 7 7 7 7 7 7 6 6 6 6 6 6 6 6 6
7 7 7 6 7 7 7 7 7 7 7 7 7 7 8 9 9 10 9 9 9 8 8 8 8 8 8 7 7 7 7 7 7 7 6 6 6 6 6 6 6 5 5
7 7 7 7 7 8 8 8 8 8 8 8 9 9 9 10 10 10 9 9 9 8 8 8 8 8 8 7 7 6 6 6 6 6 6 6 6 5 5 5 5 5 5
8 8 8 8 8 8 9 9 9 9 9 9 9 9 9 9 9 9 9 9 9 9 8 8 8 8 8 8 7 6 5 5 6 5 5 6 6 6 5 4 4 4 4
7 7 7 7 7 7 8 8 9 9 9 9 9 9 9 9 9 9 8 7 7 7 8 8 9 8 7 7 6 5 4 4 5 4 4 5 5 5 5 4 4 4 4
5 5 5 6 5 5 7 7 7 7 8 8 8 8 7 7 7 6 7 6 6 6 6 7 8 8 6 6 5 4 4 4 3 4 4 5 5 4 5 4 4 3 4
4 4 5 5 5 5 5 6 6 6 6 6 6 6 7 6 5 5 5 5 5 6 6 7 7 6 5 5 5 4 4 3 3 4 4 4 4 4 4 4 3 3 3
4 5 5 5 5 5 3 5 6 6 5 5 6 5 5 5 5 4 5 5 5 5 6 6 6 5 5 5 5 4 3 3 3 3 3 3 3 3 2 3 3 3 3
5 5 4 4 5 5 5 5 5 4 5 4 4 5 5 6 6 5 5 5 5 5 5 6 6 5 5 4 4 3 3 3 4 2 2 2 2 2 2 3 3 2 3
4 4 4 4 4 4 1 2 2 3 3 4 4 4 5 5 6 6 6 5 5 5 5 5 5 5 4 4 4 3 4 2 2 2 1 1 1 2 1 2 2 2 3
4 1 2 3 1 1 1 1 3 3 3 3 3 4 4 4 4 4 4 5 5 5 5 4 5 4 4 3 4 3 3 1 1 1 1 1 -0 -0 0 0 2 2 2
3 0 0 0 1 1 1 1 2 3 2 3 3 3 3 3 3 4 4 4 4 4 4 4 4 4 4 3 3 2 2 1 0 0 0 -0 -1 -1 -1 0 1 1 1
3 2 1 0 0 1 1 2 2 2 2 2 2 2 2 2 2 2 2 2 2 2 2 2 2 2 1 1 2 1 0 0 -0 -0 -0 -0 -1 -1 -1 -1 -1 -0 0
0 2 0 1 0 1 1 2 2 2 2 2 2 1 1 2 1 1 1 1 1 0 0 1 1 0 0 0 -0 -0 -0 -1 -1 -1 -0 -1 -2 -1 -0 -0 -0 -0 0
-1 -1 -1 1 0 2 2 1 1 1 1 1 1 1 1 1 0 0 0 0 1 0 0 -0 -0 0 -0 -0 -0 -0 -0 0 0 -0 -1 -0 -0 -1 -0 -0 -0 -0 -1
-1 -2 -2 -0 -0 -0 1 0 0 0 0 0 0 0 0 0 0 0 0 0 -0 -1 -1 0 -0 -0 -0 -0 -0 0 0 0 0 -0 -0 -0 -0 -1 -1 -1 -1 -1 -1

GFSGL_700_temp_096.txt.gz
Temp
15 13 12 12 12 11 12 11 11 11 10 11 11 11 11 10 10 10 10 9 9 9 8 9 9 9 9 8 8 8 8 8 8 8 8 8 7 8 8 8 8 8 7
11 11 11 10 11 9 11 10 11 11 10 10 11 10 11 10 10 10 10 9 9 9 8 8 8 9 9 9 9 8 8 8 8 8 8 8 8 8 7 7 7 7 7
11 12 12 12 10 9 8 9 10 10 10 10 11 11 11 10 11 10 10 10 10 9 9 9 8 9 9 8 8 8 8 8 8 8 8 8 8 8 8 8 7 8 7
11 10 10 11 10 9 6 7 9 9 10 10 10 11 11 10 10 10 10 10 9 9 9 9 8 8 9 8 8 8 8 8 8 8 8 8 8 8 8 8 8 8 7
10 11 10 9 10 9 10 10 9 10 9 10 9 10 10 10 10 10 10 10 10 10 10 10 9 9 9 9 9 8 8 8 8 8 8 8 8 8 7 7 8 7 7
10 10 10 10 11 11 9 9 8 9 11 9 10 10 10 10 10 10 10 10 10 10 10 10 9 9 9 9 9 8 8 8 8 8 8 7 7 7 7 7 7 7 8
9 9 10 9 8 8 8 7 8 9 10 8 9 9 9 9 10 10 9 10 10 10 10 10 9 9 9 9 8 8 8 8 8 7 8 7 7 7 7 7 7 7 7
9 8 8 7 7 8 6 6 7 8 9 8 7 8 8 9 9 9 9 9 9 9 9 9 9 8 8 8 8 8 8 8 8 8 8 7 7 7 7 6 7 7 7
9 9 8 7 7 7 7 6 6 7 8 8 7 7 7 8 8 8 8 9 9 9 9 9 9 9 8 8 8 8 7 7 8 8 8 7 7 7 7 7 7 6 6
8 7 6 6 7 7 7 7 6 7 7 7 7 7 8 8 8 8 8 8 8 9 9 9 9 9 8 8 8 8 7 7 7 8 7 7 7 7 7 7 7 7 6
7 7 7 7 7 7 7 6 6 6 7 6 6 6 7 7 8 8 7 8 8 8 9 9 9 9 8 8 8 8 8 7 6 6 7 7 7 7 7 7 7 7 7
7 7 7 6 6 7 7 7 7 7 7 7 7 7 7 7 7 8 7 8 8 8 9 8 8 9 9 8 8 8 7 7 7 6 6 7 7 7 7 6 6 6 7
8 7 7 7 6 6 7 7 7 7 7 7 7 7 7 7 7 6 7 9 9 9 9 9 8 8 8 9 8 8 7 7 7 7 6 6 7 6 6 6 6 6 5
7 7 7 7 6 5 6 7 8 8 8 8 7 8 8 8 8 9 9 10 10 9 9 9 8 8 8 8 8 8 7 6 6 6 6 6 6 6 6 6 5 5 5
6 6 6 6 6 7 7 7 7 7 7 7 7 7 7 7 7 7 7 7 8 8 9 9 9 8 8 8 8 8 7 6 5 6 5 5 5 5 5 5 5 5 4
6 6 6 6 5 6 6 7 6 6 6 6 6 6 6 7 7 6 6 7 7 7 7 8 8 8 8 7 7 7 6 5 6 5 4 4 5 4 5 5 5 4 4
5 5 5 5 5 5 5 3 4 5 6 6 6 6 6 6 6 6 6 6 6 5 6 6 7 7 7 7 7 5 6 6 5 5 4 4 4 4 4 4 4 4 4
5 5 5 5 5 5 5 5 5 5 5 5 6 6 6 5 5 6 5 6 5 5 5 6 6 6 6 7 7 6 6 6 5 5 4 4 3 3 4 4 4 3 3
5 5 5 5 5 4 4 4 4 3 4 4 4 4 5 5 5 5 6 6 6 5 5 5 5 6 7 7 7 6 5 5 5 4 4 4 4 3 3 3 3 2 2
5 4 4 4 3 3 3 2 2 3 3 3 3 4 4 4 5 5 5 5 6 5 5 5 5 5 6 6 6 6 5 5 4 4 3 3 3 3 3 3 2 1 2
5 4 3 3 2 1 1 1 1 1 2 3 3 3 4 4 4 4 4 4 4 4 5 5 5 5 5 5 5 4 5 5 4 4 3 3 3 2 2 2 1 1 1
5 4 4 3 3 3 2 1 1 2 3 3 3 3 3 2 4 4 4 3 3 3 4 4 4 4 4 4 4 4 4 4 4 3 3 2 2 1 1 1 0 -1 -1
4 4 3 3 3 1 1 1 1 1 2 3 3 2 2 1 2 2 2 2 3 3 2 3 3 3 3 4 4 4 4 3 2 1 1 1 1 0 0 -0 -1 -1 -1
3 1 1 1 2 2 2 2 1 2 2 2 2 2 0 1 1 1 1 1 1 1 1 2 1 1 2 1 2 1 0 0 0 1 0 0 -0 -1 -1 -1 -1 -1 -1
-0 -0 -0 -1 -1 -1 -1 2 1 1 2 1 1 1 0 1 0 -0 1 1 1 1 -0 0 1 0 -0 -0 -1 -1 -0 -0 -0 -0 -1 -1 -1 -1 -2 -2 -2 -1 0
-0 -1 -1 -1 -1 -1 -1 -1 -0 0 0 1 1 1 0 0 0 0 0 0 0 1 0 -1 -0 -0 -0 -1 -1 -1 -1 -0 -1 -1 -1 -0 -1 -1 -1 -1 -1 -1 -0

GFSGL_700_temp_102.txt.gz
Temp
12 11 11 11 11 11 11 10 11 11 10 10 10 9 9 10 10 10 10 10 10 9 9 9 9 9 9 9 9 9 8 9 8 8 8 7 7 7 8 8 7 7 7
12 10 11 11 9 9 9 10 10 10 10 10 10 9 9 9 10 10 10 10 10 10 9 9 9 9 9 9 9 9 9 9 8 8 7 7 7 8 7 7 7 7 7
11 11 10 9 8 5 8 8 9 8 9 8 9 8 9 9 9 10 9 10 10 10 9 9 9 10 10 10 10 9 9 9 9 8 8 8 8 8 8 7 7 7 7
11 10 9 8 8 6 10 10 8 8 10 7 7 7 8 8 8 9 9 9 10 10 10 10 9 9 9 9 9 9 9 9 9 8 8 8 9 9 8 8 8 8 8
9 9 9 9 8 8 8 10 9 7 7 7 7 8 8 8 8 9 9 9 10 10 10 9 9 9 9 8 8 9 9 9 9 9 8 8 8 8 8 8 8 8 8
10 10 9 9 10 10 9 8 8 8 7 7 8 8 8 8 9 8 8 9 9 10 10 9 9 9 9 8 8 8 8 9 8 8 8 9 8 8 8 8 8 7 7
9 9 10 10 9 9 9 10 9 8 8 6 7 7 7 8 8 8 8 9 9 9 9 9 9 9 8 8 8 8 8 8 7 8 8 8 8 8 8 7 7 7 7
9 9 9 9 8 9 8 9 9 8 7 7 7 7 6 6 7 7 7 8 9 9 9 9 8 8 8 7 7 7 7 7 7 7 8 8 8 8 8 7 7 7 7
9 9 8 8 8 8 8 8 8 8 7 7 6 7 6 7 6 6 7 7 8 8 8 8 8 8 7 7 8 7 7 8 7 7 7 7 8 8 8 8 7 7 7
7 7 8 8 7 7 8 8 8 7 7 6 6 6 7 6 6 6 6 6 7 7 8 8 8 8 7 7 7 8 7 7 7 7 7 7 7 7 8 8 7 7 7
7 7 7 7 7 7 7 7 6 6 6 6 6 6 6 6 6 6 6 6 7 7 7 7 8 7 7 7 7 7 8 7 7 7 7 7 7 7 7 7 7 7 7
8 8 7 7 7 6 6 7 7 7 6 7 7 7 7 6 7 6 6 6 6 6 6 7 7 7 6 7 7 7 7 7 7 7 7 7 7 8 7 7 7 7 6
7 7 7 7 7 7 6 6 6 6 6 6 6 6 6 6 7 6 6 6 6 7 7 6 7 6 7 7 7 7 7 7 8 8 7 8 8 7 6 6 7 6 6
6 7 7 7 7 7 6 6 6 7 6 6 7 7 7 7 7 7 7 7 6 7 7 7 7 7 7 7 7 7 7 7 7 6 7 7 7 6 6 7 7 6 6
6 6 6 6 6 6 6 6 6 6 6 6 6 6 6 6 6 6 7 8 8 7 8 8 8 7 7 6 6 6 7 7 7 7 6 6 6 6 6 6 6 6 6
6 6 5 5 5 5 5 5 5 5 6 6 6 6 6 6 6 6 6 6 6 7 7 7 7 7 7 7 7 7 7 7 7 6 6 6 6 6 6 6 6 5 5
5 5 5 5 5 5 5 6 6 5 5 5 5 6 5 5 5 6 6 6 6 6 7 7 7 6 7 7 7 6 7 6 6 6 6 6 6 6 6 5 5 5 5
5 5 5 5 5 6 6 6 6 5 5 5 5 4 4 4 4 4 5 5 6 6 6 6 7 7 6 6 6 5 5 5 5 5 5 5 6 6 6 5 5 6 5
5 5 4 5 5 5 5 5 4 4 4 3 3 3 3 3 4 4 4 5 5 6 6 6 6 6 6 6 6 5 5 5 5 5 5 6 6 6 6 6 5 5 5
4 4 4 4 4 4 4 4 3 2 2 2 3 3 3 3 3 3 4 4 4 5 5 5 6 6 6 5 5 5 5 5 5 5 6 6 5 5 5 5 5 5 5
4 4 4 3 4 3 3 3 1 0 0 1 3 3 2 3 3 3 3 3 4 4 4 4 4 4 5 5 4 4 4 5 5 6 5 6 6 5 5 5 5 4 4
3 4 3 3 3 3 3 2 2 2 2 2 2 2 2 2 3 3 3 3 3 3 3 3 3 4 4 4 4 3 4 5 5 5 5 5 5 5 5 5 5 5 4
3 3 2 3 2 2 2 1 1 1 2 1 2 2 2 2 2 2 2 2 2 1 1 1 0 0 2 2 2 3 3 3 4 4 4 4 5 5 4 4 3 3 3
2 2 2 2 2 1 -0 -1 -1 -0 -0 -0 0 1 1 1 1 1 1 1 1 0 -0 -0 0 1 1 2 1 2 2 2 3 3 3 4 4 3 3 4 3 3 3
2 2 2 1 0 -0 -1 -1 -1 -1 -1 -1 -0 0 0 -0 0 0 1 1 0 0 -0 -0 -0 -1 -0 0 1 1 0 0 2 2 2 2 2 2 1 1 0 0 -0
1 1 1 -1 -1 -1 -1 -1 -1 -1 -1 -1 -1 -1 -1 -1 -0 0 0 1 0 0 0 -0 -0 -1 -1 -1 -0 0 0 -0 0 0 0 0 0 0 0 -0 -0 -0 -1

GFSGL_700_temp_105.txt.gz
Temp
11 12 8 9 9 9 9 10 10 10 11 11 10 10 10 9 9 9 9 9 9 9 9 9 9 9 9 9 8 8 8 8 8 8 8 8 7 8 8 8 8 8 8
9 7 10 9 10 9 9 10 10 10 10 10 11 10 10 9 8 9 10 9 10 9 9 9 9 9 8 8 9 8 8 8 8 8 8 8 7 7 7 8 7 8 8
8 8 8 7 7 8 8 8 8 9 9 9 9 9 9 9 9 9 9 9 9 9 9 9 8 9 9 8 8 8 8 8 8 7 7 8 8 8 8 8 8 8 8
7 8 9 9 10 9 10 11 10 7 8 9 8 8 7 7 8 8 9 9 9 9 9 9 8 9 9 8 8 8 7 7 8 8 7 7 7 7 7 7 7 8 8
8 8 10 10 11 13 10 10 9 8 8 7 8 7 7 6 8 8 8 8 9 9 8 9 9 8 9 8 8 8 8 7 8 8 8 7 7 7 7 7 8 7 7
10 10 11 11 11 10 9 10 10 9 8 7 8 6 7 5 6 7 8 8 8 9 8 8 9 8 8 9 8 8 8 8 8 8 8 8 7 7 7 7 7 7 7
11 11 10 10 10 10 10 10 10 7 7 7 7 7 6 6 6 7 7 7 8 8 8 8 8 8 8 8 8 8 8 7 8 8 8 7 7 7 7 7 7 7 7
9 9 9 9 9 9 9 9 9 8 7 7 7 7 7 7 7 7 7 7 8 8 8 8 8 8 8 8 8 8 8 8 7 8 8 7 7 7 7 7 7 7 7
7 7 7 7 8 8 8 9 9 9 8 8 7 7 7 6 6 7 6 6 6 7 8 8 8 7 8 8 8 8 8 8 8 7 7 7 7 6 7 7 7 7 7
6 7 7 7 7 8 8 8 9 9 8 7 7 7 7 6 6 6 6 6 6 6 6 7 7 7 7 7 7 7 8 8 7 7 8 7 7 7 7 7 7 7 7
6 7 7 7 7 7 7 7 8 8 7 6 6 5 6 6 6 6 6 6 5 5 6 6 7 7 7 7 7 7 7 7 8 7 8 8 8 8 8 7 7 7 7
6 6 6 6 7 7 7 7 7 7 7 6 6 6 6 6 6 6 6 6 5 6 5 6 5 7 6 7 7 6 6 7 8 7 7 8 8 8 8 7 7 6 6
7 7 7 7 7 7 6 6 6 6 7 6 6 6 6 6 5 5 6 5 5 5 5 5 6 5 6 6 7 6 6 7 7 7 7 7 7 7 7 7 7 6 7
6 6 6 6 6 6 7 6 6 6 6 6 6 6 6 6 5 5 5 6 6 6 6 6 6 6 6 6 6 6 7 7 6 7 7 7 7 7 6 6 6 6 6
5 5 5 6 6 6 6 5 6 6 6 6 6 6 6 6 7 7 6 7 7 7 7 7 6 6 7 7 7 7 7 7 6 7 7 6 6 7 7 6 6 6 6
5 5 5 5 5 5 5 5 6 5 5 5 5 6 6 6 6 6 6 6 7 7 7 6 7 7 7 7 7 7 7 7 7 6 6 6 7 7 7 6 6 5 6
5 5 5 5 5 6 5 5 5 5 5 5 5 5 5 5 5 6 6 6 5 5 6 6 7 6 6 6 7 6 6 6 5 6 6 7 7 7 6 6 6 5 5
5 5 5 5 5 5 5 5 5 4 4 4 3 4 4 4 4 4 4 4 4 5 5 5 6 6 7 6 6 6 6 5 5 5 5 5 5 5 5 6 6 5 5
5 5 5 5 4 4 4 4 4 4 4 3 3 2 2 3 3 3 4 4 4 4 4 5 6 6 6 6 6 6 6 5 5 4 4 4 4 4 4 5 5 5 5
5 4 4 4 4 4 4 4 4 4 3 3 4 5 4 3 3 3 3 3 4 4 4 5 5 6 6 6 6 6 6 5 4 4 4 4 4 4 5 5 6 6 6
4 4 3 4 4 4 4 4 4 4 4 4 4 4 4 4 3 3 3 3 4 4 4 4 4 4 5 5 5 5 5 5 4 4 4 4 4 4 5 4 5 5 5
3 3 3 3 3 3 3 3 3 3 3 3 3 3 3 3 3 3 3 2 2 2 3 3 3 3 3 3 2 3 4 4 4 3 4 4 4 4 4 5 5 4 4
3 3 3 3 2 2 2 2 2 1 1 1 1 1 2 2 2 2 2 2 2 2 1 1 0 1 0 0 0 0 1 2 2 2 3 3 3 3 4 4 4 4 4
2 2 2 2 2 1 0 0 0 0 -0 -0 -0 -0 -0 0 0 1 1 1 1 1 1 1 0 0 0 1 1 1 1 1 1 2 3 3 3 3 4 4 4 4 4
1 2 2 2 1 1 1 0 -0 -0 -1 -1 -2 -1 -1 -1 -1 -0 0 1 1 1 0 0 0 -1 -1 0 0 0 0 1 1 1 0 1 2 2 3 3 3 3 3
0 0 1 1 1 1 1 1 -0 -1 -1 -1 -1 -2 -2 -1 -1 -1 0 1 0 0 0 0 0 -1 -1 -1 -1 -0 1 0 1 1 -0 0 0 0 0 0 1 1 2

GFSGL_700_temp_111.txt.gz
Temp
10 11 11 11 12 12 11 12 12 11 10 11 11 11 11 12 12 11 10 9 9 9 9 9 9 8 8 8 8 8 8 8 9 8 8 8 9 9 9 8 8 7 7
10 10 11 11 10 11 11 13 10 11 12 11 11 11 11 11 12 12 11 10 9 8 8 9 8 8 8 8 8 9 9 8 8 8 8 8 8 8 8 8 7 7 7
9 10 9 9 10 11 11 10 9 10 9 9 8 11 11 12 11 12 11 10 9 9 9 8 8 8 9 9 8 8 8 8 9 9 8 8 8 8 8 8 8 8 8
8 8 7 8 8 9 10 10 9 9 9 9 9 8 10 10 11 11 11 10 8 8 8 8 8 9 9 9 8 8 8 8 9 9 9 8 8 8 8 7 7 8 8
8 7 7 8 7 6 6 7 7 9 9 9 10 11 9 10 10 9 10 9 9 8 8 8 9 9 9 9 8 8 8 8 9 8 9 8 8 8 8 8 7 7 7
8 7 7 8 6 6 6 7 8 8 8 9 10 8 8 9 9 8 8 8 8 7 7 8 9 8 8 8 8 8 8 8 9 8 8 8 8 8 8 8 8 8 8
7 7 6 7 7 7 8 9 8 7 7 7 8 8 7 8 8 9 8 8 7 7 7 7 7 7 8 8 8 8 8 8 8 8 8 8 8 8 8 7 7 8 8
7 6 7 6 6 7 7 8 8 9 10 10 9 9 8 8 8 8 8 7 7 7 6 6 5 6 7 7 7 8 8 8 8 8 8 8 8 8 8 8 7 8 8
6 5 6 6 7 7 6 7 7 7 8 7 7 8 8 6 6 6 7 6 6 6 6 6 6 5 6 7 7 7 7 7 7 8 7 7 8 8 8 8 7 7 8
6 6 6 6 6 7 6 6 7 7 8 7 6 6 6 6 7 7 7 8 6 6 6 6 5 5 6 6 6 6 7 7 6 7 6 7 7 7 7 8 7 7 7
6 6 6 6 5 6 6 6 7 7 6 6 6 6 6 6 7 6 6 6 6 5 5 5 5 5 5 6 6 6 6 6 6 6 6 6 7 7 7 7 7 7 6
6 6 6 6 6 6 6 6 6 6 6 6 5 6 6 6 6 6 6 5 5 5 5 5 5 5 5 5 5 5 5 5 6 7 6 6 6 6 6 6 6 6 6
6 6 7 7 6 6 6 6 6 6 6 6 5 6 6 6 6 6 6 6 6 5 6 6 6 6 6 6 5 5 5 5 5 5 5 6 5 6 5 5 6 6 6
5 6 6 6 6 5 5 6 6 6 5 5 5 5 6 6 6 6 6 6 6 6 6 6 6 6 6 5 5 5 5 5 5 5 5 5 5 5 5 6 5 5 5
6 5 5 5 5 5 5 5 5 5 5 5 5 5 5 5 6 6 6 6 6 7 6 6 7 6 6 6 6 6 6 6 6 6 6 6 6 6 5 5 5 5 6
5 5 5 5 5 5 5 5 5 5 5 5 5 5 5 4 5 5 5 6 6 6 6 6 6 6 6 6 6 6 6 6 6 6 6 6 7 7 6 6 6 6 6
4 4 5 5 5 5 5 5 5 5 5 5 5 5 5 5 5 5 5 5 5 5 5 5 5 5 5 6 6 6 6 6 6 6 7 7 7 7 6 6 5 5 5
4 4 4 4 4 4 4 5 4 4 4 4 5 4 5 5 5 5 5 5 5 5 5 5 5 5 5 5 6 6 6 6 6 6 6 6 6 7 7 6 6 5 5
4 4 4 4 4 4 4 4 4 4 4 4 4 4 4 4 4 5 5 5 5 5 4 5 5 5 5 6 6 6 6 6 6 6 6 6 6 6 6 6 5 5 5
4 4 4 4 4 4 4 4 4 4 4 4 4 4 4 4 5 5 5 4 4 4 4 4 4 4 4 4 5 5 5 6 6 6 6 6 6 7 6 5 5 5 4
3 3 3 3 3 3 3 3 3 3 3 3 3 3 4 4 4 4 4 4 4 4 4 3 3 3 3 3 3 3 4 4 4 4 4 5 5 5 5 4 3 4 3
1 1 2 1 2 2 2 2 2 2 2 2 2 2 2 2 2 2 3 3 3 3 3 3 3 3 3 2 3 3 3 3 3 3 3 3 4 3 3 4 3 2 3
0 1 1 1 1 2 2 2 2 2 2 1 1 1 1 1 1 0 0 1 1 2 2 2 2 2 3 3 2 2 2 2 2 2 2 2 2 3 3 2 1 2 2
-0 -0 -0 0 0 0 0 1 1 1 1 1 -0 -0 -1 -1 -1 -1 -1 -0 -0 -0 0 1 1 1 1 1 1 1 1 1 1 1 1 1 2 2 3 3 2 1 2
-1 -0 -0 -0 -0 -0 0 0 1 1 1 0 0 -0 -0 -1 -1 -1 -1 -1 -1 -1 -1 -1 -1 -0 0 0 0 -0 -1 -0 -0 0 -0 0 0 1 1 2 -0 -0 0
-0 -0 -0 -0 0 0 1 0 -0 -0 -0 -0 -0 -1 -1 -1 -2 -2 -2 -2 -2 -1 -1 -1 -1 -1 -1 -1 -1 -1 -1 -0 -2 -1 -1 -1 -1 -0 0 1 -0 -1 -0

GFSGL_700_temp_117.txt.gz
Temp
10 10 10 10 10 10 10 10 10 10 10 10 8 9 9 10 11 10 11 11 10 10 10 10 10 9 9 9 9 9 10 10 10 9 9 9 9 9 9 9 10 10 9
9 10 10 10 11 10 10 9 10 10 9 10 8 8 8 9 10 10 10 11 11 10 10 10 10 10 10 9 10 10 10 10 10 10 9 9 9 10 9 9 9 9 9
9 9 9 10 11 11 11 9 10 11 10 9 9 9 9 6 8 9 9 10 10 10 10 10 10 10 10 9 9 9 10 10 10 10 10 9 9 10 10 10 9 9 9
9 8 8 9 9 10 11 10 10 10 10 9 10 9 9 9 9 9 9 9 9 9 9 10 10 10 10 9 9 9 9 9 10 10 10 10 9 9 9 9 9 9 9
7 7 8 8 9 9 10 10 11 10 11 10 11 11 10 10 10 9 9 9 9 9 9 9 10 10 9 9 9 9 9 9 10 10 10 11 9 9 9 9 8 8 9
7 7 7 8 8 8 8 8 9 9 9 9 10 10 10 9 10 9 9 9 9 9 9 9 9 9 9 9 9 9 9 9 9 9 10 10 10 8 8 8 8 8 9
6 6 7 8 8 7 7 7 8 8 8 9 8 9 9 9 9 9 9 8 9 9 9 9 8 8 8 8 9 9 8 9 8 9 9 9 10 8 7 8 8 8 8
5 6 6 6 6 6 7 7 6 6 7 7 7 8 8 8 8 9 9 8 9 9 9 9 8 7 7 7 8 8 8 8 8 8 8 7 8 7 7 7 7 7 7
5 5 5 6 5 5 6 6 7 7 8 8 8 8 8 8 8 7 7 8 8 9 9 8 7 7 7 7 7 7 7 7 7 7 7 6 6 6 6 7 7 7 7
3 4 5 5 5 5 6 6 7 8 7 7 8 7 8 8 8 7 7 7 7 8 8 7 6 7 7 6 6 6 6 6 6 6 6 4 5 5 6 7 7 7 7
4 4 4 5 6 6 6 6 7 7 7 7 7 7 7 6 7 8 7 7 7 7 7 6 7 6 7 6 7 7 7 6 6 5 5 5 6 5 5 6 6 6 7
4 4 5 5 5 6 6 6 6 6 6 6 6 6 7 6 6 7 7 7 7 6 6 6 6 6 7 7 6 6 6 6 5 5 5 6 5 6 6 6 5 6 6
5 5 6 6 6 5 5 5 6 6 6 6 6 6 6 6 6 6 7 6 6 6 6 6 6 6 6 6 6 6 6 6 5 5 5 6 6 5 4 5 5 4 5
5 5 5 5 5 6 5 4 5 5 4 4 4 5 6 6 6 6 6 6 6 6 6 6 6 6 6 6 7 7 7 6 6 6 6 6 6 6 6 5 5 5 5
4 4 5 5 5 5 5 5 5 5 5 5 5 4 3 5 6 6 6 6 6 6 6 6 6 5 6 6 6 6 7 7 7 7 7 7 7 7 7 6 6 5 5
4 4 3 2 2 3 5 5 5 4 4 5 5 5 5 5 5 6 6 6 6 6 5 6 6 6 6 6 6 6 6 7 6 6 7 7 7 7 6 6 5 5 6
4 3 1 1 1 1 1 2 3 4 4 5 4 5 5 5 5 5 5 5 6 5 5 5 5 5 5 5 6 6 5 6 6 6 6 6 6 6 7 7 6 6 7
3 2 1 2 3 2 4 3 2 2 2 4 4 5 5 5 5 5 5 6 6 5 5 5 5 5 5 5 5 5 6 6 6 6 6 6 6 6 7 7 7 7 7
3 3 3 3 3 4 4 1 1 2 3 3 5 5 5 5 5 6 6 6 6 5 5 4 5 5 5 5 4 5 5 5 5 6 6 6 6 6 6 6 6 6 6
3 3 3 3 0 1 3 3 3 3 3 1 1 2 5 5 5 6 5 5 5 5 4 4 5 6 5 5 5 5 5 5 5 6 6 6 6 5 6 5 6 6 6
-0 0 2 0 0 2 2 3 3 3 2 0 1 0 1 2 3 2 0 0 1 1 1 2 3 0 5 4 4 5 5 5 5 5 5 5 4 5 4 4 4 5 5
1 1 0 0 0 0 0 1 0 0 0 0 0 0 0 1 1 1 0 0 0 -0 -0 0 3 3 2 3 3 3 3 3 3 3 3 2 3 3 3 3 4 4 4
0 -0 1 0 -0 -0 -0 0 0 -0 -0 -0 -0 -0 0 0 0 1 1 1 1 1 0 -0 -0 -0 -0 1 2 2 2 2 2 2 2 1 1 1 2 2 2 3 3
-0 0 -0 -0 -0 -1 -1 0 -1 -0 -1 -0 -0 -0 -0 -1 -0 -0 -0 0 -0 1 0 1 0 -0 -1 0 -0 0 1 2 1 0 1 1 0 0 0 -0 -0 1 -0
0 0 -1 -1 -1 -1 -1 -1 -1 -1 -1 -1 -0 1 1 1 -0 0 1 1 -0 -0 0 0 -1 0 -1 -0 0 -1 1 -0 0 -0 -0 -0 -0 0 -0 -1 -0 -1 -0
-2 -1 -2 -2 -2 -1 -1 -2 -0 -2 -2 -2 1 0 1 0 -0 -0 -0 -1 -1 -1 -1 -1 -1 -1 -0 0 0 -0 -0 -0 -0 -0 -1 -1 -0 0 -0 -0 -0 -0 -1

GFSGL_700_temp_123.txt.gz
Temp
8 7 7 8 9 9 10 10 10 10 10 9 9 9 9 9 9 9 10 10 10 10 10 10 10 9 9 9 9 9 9 9 10 10 9 9 9 9 9 9 8 9 10
9 9 8 8 8 9 9 10 10 10 10 10 9 9 9 9 10 10 7 7 9 9 10 10 10 10 10 9 9 10 10 10 9 10 10 9 9 9 9 9 10 10 10
9 9 9 8 7 7 8 9 9 10 9 9 10 9 9 8 8 8 6 7 8 9 9 9 10 9 10 10 9 9 10 10 10 10 10 9 9 10 10 10 10 10 9
8 8 7 7 7 7 8 8 8 8 9 8 9 10 9 8 8 8 5 7 8 9 9 9 10 10 9 10 10 9 9 10 10 10 10 10 9 9 10 11 10 9 9
6 6 5 6 6 6 6 7 7 8 8 8 8 9 10 10 9 8 8 8 7 9 10 9 10 10 10 9 9 9 9 10 10 10 10 10 9 9 10 10 10 10 9
5 5 5 5 5 6 7 7 8 8 8 8 8 9 9 10 10 8 9 9 9 9 9 9 10 10 9 10 8 9 9 10 10 10 10 10 9 8 9 9 9 9 9
5 4 4 4 5 6 6 7 7 8 7 8 8 9 9 9 9 9 9 8 9 9 9 10 10 10 10 10 9 8 8 9 9 9 9 10 9 8 7 8 8 8 8
4 4 4 4 4 5 6 7 7 7 7 7 8 8 8 8 8 8 8 9 9 8 9 9 8 7 9 10 9 8 8 9 8 9 8 8 8 8 7 7 8 7 7
3 3 4 3 4 6 6 6 7 6 6 7 7 7 7 7 8 8 8 8 8 8 8 8 8 9 9 8 8 8 8 8 8 8 8 8 7 7 7 7 8 7 7
3 3 3 2 4 5 6 6 6 6 6 6 7 6 7 7 7 7 7 8 8 7 7 8 8 8 7 8 7 8 8 8 8 8 7 7 7 7 7 7 6 6 5
3 3 3 2 3 3 4 4 5 6 6 6 7 6 6 6 7 7 7 7 7 7 7 7 7 7 7 7 7 8 7 7 7 7 7 7 7 7 7 7 6 6 6
2 2 2 3 3 3 3 3 5 6 5 5 5 6 6 6 6 6 6 7 7 6 6 6 6 6 7 8 7 7 7 7 7 7 7 7 6 7 6 6 6 6 6
2 2 2 3 3 3 3 4 3 3 3 3 5 5 6 5 6 6 7 7 7 6 6 6 6 7 7 7 6 6 7 7 7 7 7 6 6 6 6 6 6 5 6
2 2 3 3 2 3 3 3 3 4 4 5 4 5 6 6 6 6 6 6 6 6 6 6 6 6 6 7 6 6 6 6 6 6 6 6 6 6 6 6 6 6 6
1 3 3 3 3 2 2 3 3 4 4 5 5 5 5 5 5 6 6 6 5 5 5 5 5 5 6 5 6 6 6 6 6 6 6 6 6 6 6 6 6 6 7
1 2 2 2 2 2 2 3 2 3 3 4 5 5 5 5 5 5 5 5 6 6 6 6 6 6 6 6 6 6 6 6 6 6 6 6 6 6 7 7 7 7 7
3 1 2 2 1 1 2 2 2 1 2 3 4 4 5 5 5 5 5 5 5 6 6 6 6 6 6 6 6 6 6 6 6 6 6 6 7 7 6 6 6 6 6
3 2 2 2 1 1 1 1 1 1 1 2 3 3 4 4 4 5 5 5 5 5 5 4 4 5 5 5 5 6 6 6 5 5 6 6 6 7 7 7 7 6 6
1 2 1 1 1 2 2 2 2 2 1 1 1 2 2 3 4 4 4 4 4 4 4 4 3 4 4 5 5 5 5 5 5 5 5 5 6 6 6 6 6 6 6
1 1 1 0 0 1 1 2 2 2 1 1 1 1 2 2 1 2 2 1 1 2 1 1 1 2 2 3 3 3 3 3 4 4 5 5 5 5 5 5 5 5 5
1 1 0 1 1 0 1 0 0 1 1 1 1 0 -0 0 1 0 0 0 0 1 1 0 -0 1 1 1 2 2 2 2 2 3 3 3 3 4 4 4 4 3 4
0 1 0 0 0 1 0 0 1 1 1 0 0 -0 -0 -0 0 1 1 0 0 1 1 1 1 1 0 1 1 1 1 2 2 2 2 2 2 1 1 1 1 1 1
0 0 0 0 0 0 0 -0 0 0 -0 0 -0 -1 -1 -0 1 0 -0 0 0 1 1 1 0 -0 1 1 0 -0 -0 1 -0 1 1 1 1 1 1 1 1 0 0
0 -1 0 -0 -0 -1 -0 -1 -1 -1 -1 -1 -1 -1 -0 -0 -0 -0 -0 -0 -0 -0 -0 0 -0 0 -0 0 -0 -0 -1 -0 -1 -0 0 0 0 -0 -0 -0 -1 -1 -1
1 -0 0 -0 -0 -0 -0 -0 -0 -0 -0 -0 -0 0 1 1 2 1 1 1 1 1 -0 -1 -1 -2 -1 -1 -1 -2 -1 -1 -0 -0 -1 -1 -0 0 0 -0 -1 -1 -1
1 1 1 1 1 1 0 -0 0 0 0 0 0 0 1 1 1 1 1 1 1 1 1 0 0 -0 -0 -0 0 -0 -0 -1 -1 -2 -1 -1 -1 -1 -1 -1 -1 -1 -1